Wind_Speed
19 19 19 19 20 21 23 25 27 29 32 33 35 36 38 40 40 40 40 42 42 44 46 47 48 49 50 49 46 44 43 42 41 39 37 35 32 32
26 28 28 26 26 26 25 26 27 29 32 38 38 40 41 42 43 42 42 44 45 45 45 46 47 48 48 48 47 47 46 44 43 42 40 37 37 36
32 33 34 34 33 32 32 33 33 33 33 36 40 41 41 42 43 44 45 46 47 48 48 48 48 48 48 48 48 49 49 48 47 45 44 42 41 39
38 38 38 39 39 39 39 39 39 40 40 41 43 46 48 49 49 50 50 51 50 51 51 52 53 54 54 53 52 50 50 50 49 48 47 45 43 42
44 44 44 44 44 43 43 44 46 45 46 47 49 50 52 54 56 58 59 59 60 59 57 56 56 56 57 58 58 58 56 55 54 51 50 50 49 48
51 51 49 49 50 52 52 51 51 52 52 54 54 56 57 59 59 62 65 65 66 66 67 66 63 61 59 59 60 60 61 61 59 58 56 54 52 51
56 57 56 56 56 56 56 58 59 59 59 59 60 61 63 64 65 65 67 69 72 72 73 72 70 70 66 61 61 61 61 60 62 63 62 60 58 56
62 62 62 62 61 61 62 63 64 65 65 65 65 67 69 71 71 71 72 73 74 74 72 71 72 68 69 68 65 60 58 61 61 61 62 63 63 62
68 67 67 68 68 68 67 68 69 70 71 71 71 73 74 76 76 76 77 76 76 76 77 73 71 66 65 64 63 62 63 60 57 59 61 62 59 62
71 72 72 72 72 73 73 73 73 74 77 77 77 78 79 80 79 78 78 78 78 78 77 76 69 65 66 65 65 65 65 65 62 59 57 58 59 62
76 76 76 76 77 76 76 77 77 77 79 79 78 78 78 78 77 78 78 79 78 77 77 77 69 66 66 67 67 69 68 68 67 66 64 61 58 58
77 77 78 78 77 78 78 77 76 76 78 78 77 77 77 77 77 79 80 80 81 81 80 78 74 70 66 67 69 70 69 68 67 67 68 67 65 63
75 74 74 76 75 76 77 77 77 77 78 78 78 78 77 77 78 81 83 86 87 86 85 80 75 72 70 69 69 69 69 68 68 68 67 66 67 66
70 71 73 76 77 77 78 78 78 79 79 79 79 78 80 80 83 87 91 91 89 84 79 79 77 73 70 70 70 70 71 70 68 69 68 68 67 66
70 72 74 75 76 77 77 78 80 81 82 83 83 83 86 90 92 89 86 83 81 77 75 74 75 75 73 70 69 71 71 71 73 71 70 68 68 68
75 75 77 79 78 79 80 82 85 87 89 90 90 88 83 78 76 76 75 76 76 72 72 72 72 74 73 72 72 70 72 73 73 75 75 72 71 70
89 89 83 82 86 86 86 85 84 82 78 75 73 70 69 68 67 68 69 69 69 67 66 66 68 69 70 71 70 69 69 71 74 76 78 76 75 74
82 80 78 77 76 74 72 70 66 65 64 63 61 59 58 59 60 61 62 61 61 60 59 57 60 62 66 66 66 67 68 69 72 74 78 78 77 77
73 71 69 65 63 61 59 57 56 54 53 53 53 53 54 54 53 53 53 53 54 54 52 53 53 54 57 58 58 65 64 65 69 71 74 75 75 78
62 62 60 56 53 50 49 48 47 47 48 48 49 48 47 47 45 45 45 45 45 45 45 44 45 47 49 49 52 53 57 60 62 63 67 71 73 75
53 52 50 47 43 43 43 44 46 45 44 44 44 44 43 42 39 40 39 39 38 37 36 36 38 40 41 43 42 42 46 50 53 55 58 61 65 69
47 45 42 39 36 37 38 41 42 40 39 39 39 36 34 34 32 31 30 29 28 27 27 28 31 33 35 35 34 36 38 42 45 47 48 51 54 58
37 37 36 33 32 32 34 36 37 35 33 29 27 25 25 25 26 25 24 23 22 22 23 23 23 25 26 26 28 28 29 31 34 35 37 39 43 46
Wind_Direction
308 308 307 299 289 278 270 265 263 264 266 264 266 267 268 269 268 267 267 265 265 265 266 267 267 267 268 269 266 264 263 263 264 264 265 263 264 264
295 295 294 291 288 286 282 277 272 268 267 272 269 268 267 268 268 267 267 267 267 266 266 266 267 268 269 268 266 264 263 262 262 263 264 264 261 260
286 286 287 286 283 279 276 276 277 276 274 273 276 276 274 273 272 271 270 269 268 267 266 266 266 266 266 267 266 264 262 261 261 261 261 262 262 261
282 282 282 281 277 275 274 274 275 277 276 276 276 277 278 277 276 276 275 273 270 269 268 268 266 265 264 264 263 263 263 262 260 258 258 259 256 257
281 280 278 273 270 270 271 271 272 272 274 276 276 276 276 277 279 279 279 278 277 275 272 268 266 265 265 263 262 261 259 259 259 257 256 255 255 256
277 276 274 273 272 273 274 273 271 270 269 268 271 274 274 274 274 277 280 280 280 278 278 277 273 269 266 264 262 259 259 259 257 256 255 254 253 253
275 273 273 273 272 272 271 272 272 272 271 271 271 272 272 273 272 273 274 276 278 279 279 278 277 276 272 268 264 262 259 257 256 255 254 254 252 251
273 271 271 271 271 272 271 271 272 273 273 273 274 275 275 276 275 275 274 276 279 278 280 283 280 277 273 270 266 264 263 258 256 255 254 252 252 252
274 273 271 271 271 272 273 273 273 273 274 275 275 275 275 274 274 274 273 273 274 276 276 279 279 275 268 262 258 257 258 259 258 255 252 251 248 249
275 274 274 274 274 274 275 275 275 274 274 274 275 275 275 275 275 274 274 273 273 274 275 273 273 268 263 260 257 254 252 252 253 253 253 252 251 251
277 276 275 275 276 276 275 275 276 276 275 275 275 274 274 275 276 276 275 273 271 271 273 272 268 263 260 257 255 254 253 251 250 250 250 250 250 250
278 278 278 277 277 277 277 276 276 275 274 274 273 273 272 272 274 274 274 274 274 272 270 269 266 261 255 254 255 255 253 252 251 250 248 248 248 249
278 279 279 279 278 277 277 276 274 272 272 272 272 272 273 273 273 273 273 275 273 271 269 266 263 260 257 251 250 253 254 251 250 249 249 248 246 245
280 280 279 279 279 277 276 275 274 273 273 271 272 272 273 274 275 273 273 273 271 269 266 266 264 260 255 252 250 249 251 252 250 248 246 246 246 245
283 281 280 280 279 277 276 276 276 275 274 274 274 274 275 274 274 274 272 269 267 266 265 263 263 262 258 255 250 248 246 249 250 249 248 246 245 245
284 283 282 280 277 276 275 276 277 277 277 277 277 277 275 272 270 269 268 267 266 265 264 263 262 260 260 258 255 250 247 245 245 249 249 246 246 246
293 292 287 280 276 275 274 275 276 277 277 277 276 275 275 273 271 269 268 268 267 267 265 264 263 261 259 258 256 254 251 248 244 244 245 246 246 246
288 282 281 281 280 279 279 279 279 280 279 279 279 277 275 274 272 271 270 269 268 267 265 263 261 260 260 257 256 253 250 247 245 243 242 243 243 245
284 284 283 282 281 280 280 280 280 280 279 280 280 280 277 275 275 274 272 270 269 268 267 264 263 260 258 257 255 255 251 248 246 244 243 242 241 242
283 282 281 280 280 281 279 279 279 279 280 280 281 280 279 278 276 274 272 270 267 265 263 264 263 263 261 258 254 254 254 252 249 247 245 243 240 240
283 281 280 280 280 280 281 281 282 283 281 278 278 279 279 278 274 271 271 271 269 267 264 262 261 260 261 260 258 252 250 249 249 248 246 245 242 241
284 282 280 280 279 279 280 281 282 280 278 278 279 279 278 276 277 275 273 273 272 269 264 259 258 259 259 258 255 250 247 247 247 245 244 243 242 242
289 283 280 278 279 279 279 278 278 280 281 279 277 276 275 276 275 273 272 270 265 262 260 257 256 257 258 255 252 250 247 245 244 242 241 238 236 238
Height
5684 5683 5681 5680 5679 5679 5679 5679 5678 5677 5676 5676 5676 5676 5676 5676 5676 5677 5676 5675 5675 5675 5675 5676 5676 5677 5678 5679 5679 5680 5681 5682 5684 5685 5686 5687 5688 5688
5677 5676 5674 5673 5672 5671 5670 5670 5669 5669 5668 5664 5665 5665 5665 5664 5664 5665 5665 5664 5664 5664 5664 5664 5663 5663 5664 5665 5666 5667 5669 5670 5672 5673 5675 5676 5677 5679
5668 5667 5665 5663 5662 5661 5660 5659 5658 5657 5657 5655 5652 5651 5651 5651 5651 5650 5650 5650 5650 5651 5652 5651 5651 5651 5651 5652 5653 5653 5655 5657 5659 5660 5662 5664 5666 5668
5658 5657 5655 5653 5651 5649 5647 5646 5645 5644 5644 5643 5641 5639 5637 5637 5636 5635 5635 5635 5634 5634 5633 5635 5636 5637 5637 5637 5638 5640 5641 5643 5645 5646 5648 5650 5653 5654
5647 5645 5643 5641 5639 5637 5635 5633 5631 5630 5629 5627 5626 5625 5623 5622 5621 5620 5619 5618 5618 5618 5618 5617 5618 5619 5620 5621 5622 5624 5625 5627 5630 5632 5634 5636 5638 5640
5631 5630 5628 5626 5625 5623 5621 5618 5616 5614 5613 5611 5609 5607 5605 5604 5605 5604 5601 5601 5599 5599 5599 5600 5601 5601 5603 5604 5606 5606 5607 5609 5612 5614 5617 5620 5623 5625
5614 5613 5611 5610 5608 5605 5603 5601 5599 5597 5595 5594 5592 5590 5586 5585 5586 5585 5584 5582 5580 5579 5579 5579 5581 5582 5583 5585 5587 5589 5590 5591 5593 5596 5599 5602 5605 5608
5593 5591 5590 5589 5587 5586 5584 5582 5580 5578 5575 5574 5573 5570 5567 5565 5565 5565 5565 5563 5562 5556 5559 5559 5559 5560 5562 5565 5566 5569 5572 5573 5575 5577 5580 5583 5586 5590
5574 5572 5569 5566 5565 5564 5563 5561 5559 5557 5555 5554 5552 5548 5548 5543 5544 5542 5542 5543 5541 5537 5537 5541 5537 5540 5541 5544 5546 5548 5551 5554 5557 5559 5561 5564 5567 5570
5551 5550 5548 5544 5541 5541 5541 5539 5536 5534 5530 5529 5529 5526 5524 5519 5518 5517 5517 5516 5519 5517 5512 5521 5516 5519 5517 5522 5526 5528 5529 5532 5537 5540 5543 5545 5548 5552
5529 5526 5524 5521 5517 5516 5516 5513 5512 5509 5503 5503 5503 5502 5500 5496 5492 5490 5490 5490 5494 5494 5491 5492 5496 5495 5497 5499 5503 5505 5507 5510 5513 5518 5523 5527 5530 5533
5504 5501 5497 5496 5493 5489 5488 5486 5487 5482 5477 5476 5476 5475 5473 5472 5468 5464 5464 5465 5464 5467 5469 5465 5468 5469 5476 5479 5479 5481 5485 5488 5492 5495 5500 5505 5510 5515
5480 5476 5472 5467 5467 5464 5460 5460 5458 5454 5453 5451 5450 5449 5446 5445 5442 5437 5436 5436 5436 5437 5437 5437 5442 5444 5447 5454 5458 5458 5461 5466 5471 5475 5478 5483 5487 5493
5457 5454 5450 5445 5442 5438 5435 5431 5430 5427 5427 5425 5423 5424 5421 5418 5413 5408 5406 5405 5404 5407 5407 5406 5413 5416 5421 5427 5433 5438 5439 5443 5448 5452 5456 5461 5466 5471
5432 5430 5428 5423 5418 5414 5410 5406 5401 5398 5395 5395 5395 5395 5391 5388 5384 5380 5376 5374 5375 5379 5380 5381 5382 5385 5391 5399 5406 5413 5416 5421 5424 5430 5434 5438 5444 5450
5406 5406 5404 5400 5395 5389 5385 5381 5376 5371 5366 5364 5363 5362 5359 5357 5354 5350 5349 5347 5347 5353 5353 5354 5356 5357 5362 5369 5375 5387 5391 5397 5403 5405 5410 5416 5423 5428
5377 5375 5372 5366 5361 5357 5353 5352 5348 5344 5337 5334 5334 5333 5331 5329 5328 5324 5324 5323 5323 5327 5330 5331 5330 5331 5336 5341 5348 5357 5364 5371 5377 5381 5385 5393 5401 5406
5344 5342 5340 5336 5333 5329 5326 5325 5322 5318 5314 5310 5309 5309 5307 5305 5304 5303 5301 5300 5300 5304 5306 5308 5307 5309 5310 5317 5323 5329 5334 5342 5346 5353 5360 5368 5378 5384
5318 5317 5313 5311 5309 5307 5305 5303 5301 5297 5294 5291 5289 5287 5286 5285 5283 5282 5281 5279 5280 5282 5285 5286 5288 5289 5290 5296 5302 5300 5308 5315 5320 5327 5334 5342 5353 5359
5297 5295 5292 5290 5288 5287 5286 5283 5282 5281 5278 5275 5272 5270 5267 5265 5265 5264 5262 5262 5263 5265 5267 5268 5269 5270 5271 5276 5279 5285 5287 5292 5297 5304 5311 5317 5327 5334
5279 5276 5274 5272 5271 5270 5269 5267 5265 5264 5261 5258 5257 5254 5252 5250 5250 5249 5248 5248 5248 5250 5252 5254 5254 5254 5257 5259 5264 5268 5269 5272 5277 5285 5291 5298 5305 5311
5262 5260 5259 5258 5257 5256 5254 5252 5250 5248 5246 5244 5243 5242 5240 5238 5238 5237 5237 5238 5238 5238 5240 5241 5242 5243 5244 5247 5250 5253 5256 5258 5262 5268 5274 5280 5287 5292
5249 5246 5245 5244 5244 5242 5241 5238 5236 5234 5233 5233 5232 5231 5230 5229 5228 5228 5228 5228 5229 5230 5230 5232 5233 5233 5235 5238 5240 5243 5245 5249 5252 5256 5261 5265 5271 5276